Погода в Мамлютке

Казахстан     54˚56′22″N   68˚32′40″E
темп.,
°C
ветер,
м/с
пор.,
м/с
влажн.,
%
обл.,
%
осадки,
мм/ч
давл.,
гПа
погр.,
м
6 декабря, вс
вс600:00−19˚зюз22940 0.0 104520
03:00−19˚з23950 0.0 104422
06:00−19˚з33950 0.0 104434
09:00−18˚зюз239597 0.0 104331
12:00−16˚юз359498 0.0 1043160
15:00−15˚юз369450 0.0 1041191
18:00−17˚юз349625 0.0 104073
21:00−17˚юз469755 0.0 1039106
7 декабря, пн
пн700:00−17˚юз479628 0.0 1038124
03:00−18˚юз47950 0.0 1036126
06:00−17˚юз49938 0.0 1036160
09:00−17˚юз49930 0.0 1034161
12:00−14˚юз59890 0.0 1034265
15:00−13˚зюз5109071 0.0 1032284
18:00−12˚зюз599386 0.1 1032329
21:00−11˚зюз5994100 0.3 1032283
8 декабря, вт
вт800:00−11˚зюз599498 0.5 1031257
03:00−11˚з599494 0.1 1031231
06:00−11˚з499596 0.2 1030214
09:00−9˚з4895100 0.4 1031249
12:00−9˚з4895100 0.4 1031236
15:00−8˚з479592 0.0 1031214
18:00−10˚зюз469686 0.0 1031113
21:00−10˚зюз489697 0.0 1030165
9 декабря, ср
ср900:00−9˚зюз5109598 0.1 1029271
03:00−5˚з71291100 0.1 1027598
06:00−10˚з6129399 0.2 1026314
09:00−11˚з61192100 0.0 1026299
12:00−10˚зсз5109396 0.0 1027310
15:00−9˚зсз5109498 0.1 1028352
18:00−10˚зсз4109699 0.1 1029213
21:00−11˚сз499674 0.0 1030181
10 декабря, чт
чт1000:00−12˚сз499776 0.1 1031177
03:00−13˚сз4697100 0.0 1033127
06:00−14˚сз3498100 0.1 103460
09:00−15˚сз3498100 0.0 103554
12:00−13˚зсз359575 0.0 1036128
15:00−12˚зсз37924 0.0 1037163
18:00−12˚зсз499611 0.0 1037150
21:00−12˚сз479518 0.0 1039134